User: anonymous   Login
Location: Caltech
(34.1382°N, 118.1253°W)
Time: 23:33:23
(UTC-07:00)
Language:

FO-29 - Orbit

View from above orbital plane
View from above orbital plane
View from above satellite
View from above satellite

Ground track
Ground track

The orbit data is extracted from the following two-line orbital elements,

1 24278U 96046B   17087.93370348 -.00000033 +00000-0 +22723-5 0  9996
2 24278 098.5755 341.8292 0350295 185.1412 174.6092 13.53074850017776
Epoch (UTC): 28 March 2017 22:24:31
Eccentricity: 0.0350295
inclination: 98.5755°
perigee height: 800 km
apogee height: 1321 km
right ascension of ascending node: 341.8292°
argument of perigee: 185.1412°
revolutions per day: 13.53074850
mean anomaly at epoch: 174.6092°
orbit number at epoch: 1777

The dashed part of the orbit path shows where the satellite is in the earth's shadow,  

DLR